GFSFLT2_250_spd_096.txt.gz
Wind_Speed
90 89 87 85 81 82 78 79 83 80 76 68 63 64 53 48 51 52 49 45 36 34 32 27 20 20 22 19 15 14 13 12
92 91 90 87 85 83 81 77 79 82 80 73 72 65 67 55 53 50 46 45 48 42 36 25 30 23 25 23 19 14 12 12
92 94 93 92 88 83 82 78 76 79 83 81 73 69 65 65 63 59 48 44 44 42 40 38 39 30 31 28 24 16 13 10
92 95 95 95 93 88 84 82 75 74 81 86 84 73 64 66 62 61 56 56 51 46 47 45 41 35 34 37 30 22 19 13
96 95 97 96 95 91 84 82 76 75 77 83 86 82 73 66 68 67 62 60 56 53 51 47 44 37 35 43 38 31 27 21
99 98 97 97 96 94 90 84 77 74 75 78 83 87 85 75 73 75 64 59 56 54 53 48 43 42 44 46 37 36 34 26
102 101 100 99 100 98 95 90 82 77 79 78 81 84 87 86 76 72 68 64 63 59 59 57 51 50 51 49 41 42 49 38
102 103 102 101 100 100 99 95 89 81 80 82 79 85 85 87 88 85 77 73 67 64 65 63 59 56 62 58 53 59 58 44
99 101 103 103 101 99 98 98 94 89 85 84 84 80 87 88 88 90 93 84 75 74 67 65 60 62 63 65 62 60 56 51
98 102 104 102 99 97 97 97 97 95 90 87 84 83 81 88 91 90 90 94 94 80 78 69 63 65 65 65 68 67 60 59
92 100 102 100 98 98 96 97 97 98 95 91 88 86 87 88 89 97 96 100 97 96 90 84 81 75 71 67 73 75 70 68
87 91 98 96 99 98 94 95 96 96 98 97 95 92 91 93 94 92 95 101 101 100 101 99 95 87 80 77 75 73 77 74
84 86 89 92 94 97 97 96 96 97 98 98 99 101 97 95 96 97 97 96 97 100 99 99 99 99 88 84 87 83 81 78
91 86 88 86 89 91 95 98 98 97 98 99 101 104 105 105 105 104 102 100 98 97 94 95 98 99 97 90 91 90 88 87
88 90 86 86 86 87 94 97 96 97 96 99 102 104 109 111 110 109 107 106 105 103 100 97 95 96 100 100 97 101 98 96
78 92 91 88 88 88 87 92 92 92 94 97 100 103 106 110 114 114 113 113 112 110 108 105 103 101 99 98 101 103 103 107
62 79 94 92 89 88 91 87 87 91 91 94 96 100 103 105 112 115 115 116 118 118 117 113 111 109 106 102 101 101 104 106
51 60 75 90 100 99 94 91 90 88 91 95 97 100 104 108 110 112 117 120 119 121 121 121 118 115 113 111 109 107 106 104
47 53 60 72 87 98 101 95 95 94 97 96 98 101 105 107 109 112 114 115 118 120 118 119 118 119 119 119 118 116 114 111

GFSFLT2_250_spd_102.txt.gz
Wind_Speed
79 86 85 86 84 87 86 83 85 82 79 74 71 68 62 52 50 50 46 43 38 32 30 23 19 21 18 13 10 11 8 7
80 86 89 86 88 87 86 85 87 85 81 82 79 76 65 60 54 52 49 46 45 40 42 33 26 26 23 17 13 18 12 11
81 84 90 91 89 88 89 86 86 85 80 80 79 77 72 68 61 56 52 53 49 48 47 42 31 30 27 22 18 18 18 15
82 83 87 90 91 91 90 87 86 85 84 77 76 76 74 71 70 62 55 58 58 55 52 47 38 35 31 28 28 26 25 24
82 80 86 90 94 93 92 89 87 86 88 92 92 87 83 76 73 65 66 63 63 56 55 52 46 43 38 34 28 32 31 29
85 90 89 90 92 94 95 93 88 88 93 91 88 85 80 74 79 73 74 71 64 60 60 55 53 50 42 39 36 32 29 32
86 83 83 83 87 93 95 96 93 91 91 95 93 90 86 83 78 78 76 80 72 65 66 64 57 56 53 50 42 37 40 36
85 83 85 86 89 93 95 97 96 93 91 96 99 93 90 89 87 83 79 81 82 74 72 67 64 63 58 54 49 48 48 46
89 87 87 86 89 91 94 95 97 96 96 92 97 101 99 94 91 90 85 84 77 71 71 72 70 68 66 60 56 56 54 53
89 88 85 91 88 89 93 96 98 100 97 94 94 96 96 103 97 96 92 89 85 85 78 72 71 73 71 69 66 64 62 59
84 88 90 87 88 90 92 97 100 100 101 99 96 95 96 96 104 106 102 100 95 88 83 79 81 76 73 73 71 71 68 65
80 83 86 91 88 91 91 94 101 102 99 100 100 97 95 96 97 100 106 109 107 107 100 93 86 83 85 82 77 74 69 71
77 82 85 84 87 90 93 95 97 102 101 99 99 98 97 97 96 98 99 100 102 104 104 103 100 95 85 83 83 83 84 78
76 77 81 84 84 86 91 93 92 97 103 102 99 99 103 101 99 98 98 99 99 95 93 95 103 105 101 93 89 90 85 82
80 83 80 81 83 85 86 88 89 92 96 100 102 101 100 102 101 101 102 101 100 98 96 94 95 99 107 106 104 92 90 90
63 75 87 86 80 82 84 84 85 88 90 95 99 101 101 102 104 106 104 103 102 99 97 96 96 96 99 103 113 110 107 105
50 61 71 79 83 81 81 83 83 85 88 91 94 98 101 103 104 105 105 104 103 104 103 101 99 99 99 100 101 104 110 114
40 48 57 66 72 80 82 81 79 81 85 87 89 90 88 99 104 105 104 104 105 107 107 106 105 104 102 101 102 103 104 103
37 38 43 52 61 71 79 80 78 77 80 82 85 86 90 94 98 102 104 103 106 106 107 107 110 111 108 107 107 107 106 106

GFSFLT2_250_spd_108.txt.gz
Wind_Speed
83 87 86 89 87 88 80 78 62 63 62 57 53 50 52 54 50 47 41 39 36 32 21 18 20 14 9 6 5 4 5 3
82 84 87 88 91 91 86 81 69 65 70 63 59 54 57 60 57 50 53 49 44 39 27 20 23 23 16 13 9 8 5 4
81 81 88 90 93 92 90 88 72 71 71 69 66 62 58 63 66 60 61 56 46 41 32 22 25 25 24 23 19 16 15 6
82 81 86 91 94 95 95 96 92 79 84 76 67 64 59 67 64 63 56 52 52 49 36 28 25 36 40 33 30 22 19 15
82 82 85 90 95 96 100 102 100 89 92 83 73 75 73 72 75 68 64 61 59 53 47 36 30 22 44 46 42 31 22 23
91 88 87 88 95 95 99 104 106 103 92 92 93 78 60 83 74 79 77 76 66 59 54 49 37 40 33 47 35 27 22 37
87 91 89 88 91 96 99 103 108 108 103 99 93 94 75 72 69 59 59 75 74 70 64 61 59 59 59 40 47 43 38 38
85 88 91 89 91 95 98 101 104 108 111 102 107 85 84 83 70 70 71 64 71 75 75 72 71 67 65 67 62 57 51 52
84 88 92 93 91 93 95 98 101 106 113 114 99 86 48 92 92 80 73 64 72 69 71 76 73 70 65 68 69 66 62 56
85 88 87 95 95 96 96 98 101 107 110 103 94 96 99 78 108 100 102 92 82 73 73 75 75 73 74 71 68 66 58 61
84 85 88 90 93 97 94 96 96 101 105 100 99 98 99 65 57 108 107 91 98 93 74 79 76 78 80 74 70 67 65 60
84 88 90 87 89 91 94 101 99 96 97 98 103 105 96 127 98 68 72 118 103 95 101 91 76 80 87 81 78 78 71 68
78 84 86 89 87 91 95 99 96 95 96 98 98 105 111 112 121 127 91 82 108 102 98 99 105 89 83 91 85 77 76 76
73 73 79 84 88 91 94 96 94 101 99 101 98 98 112 106 117 112 115 102 100 113 107 100 87 98 98 89 90 95 87 83
73 76 77 79 82 89 99 100 96 93 99 100 103 103 103 108 115 112 97 104 115 103 108 114 112 96 98 96 89 103 104 101
67 79 78 79 88 90 99 96 98 97 95 97 101 104 104 107 111 110 114 112 105 107 109 110 117 116 110 104 105 97 94 91
58 65 80 86 96 93 94 98 100 96 94 98 98 99 101 102 105 104 105 106 107 109 108 109 111 115 118 115 115 113 107 109
55 59 65 76 86 89 95 96 97 97 98 99 99 98 99 100 99 101 100 101 103 103 105 109 110 110 111 111 116 122 118 113
53 55 58 65 67 70 76 92 94 95 98 97 98 99 99 99 100 101 100 99 99 100 101 103 106 110 111 113 113 114 116 118

GFSFLT2_250_spd_111.txt.gz
Wind_Speed
82 87 89 85 80 79 77 68 64 66 52 53 61 49 47 44 43 37 39 34 27 25 25 14 15 13 9 6 3 2 2 1
80 86 90 88 84 80 78 74 69 68 64 51 57 63 54 49 38 44 42 38 32 30 30 28 21 20 18 15 8 5 1 4
80 80 87 87 87 86 83 70 71 65 66 61 55 58 60 54 42 44 44 41 37 37 34 29 29 25 20 22 16 12 10 8
79 80 87 91 93 97 96 81 73 65 68 66 63 59 57 50 44 48 48 48 42 41 38 35 33 32 29 28 27 25 19 13
83 86 86 93 94 99 99 98 84 76 60 68 68 60 56 53 56 50 57 54 49 47 42 43 44 35 31 29 33 36 31 22
85 86 88 90 92 98 102 101 99 90 85 71 74 71 68 63 62 61 60 59 56 57 51 47 47 44 35 40 43 43 40 33
87 87 90 91 92 96 101 100 101 103 91 83 76 71 67 65 63 60 64 66 65 61 57 51 50 48 46 43 34 35 29 26
86 87 92 93 93 93 97 105 107 115 98 87 78 63 65 63 67 58 56 73 58 59 56 59 60 55 48 45 38 39 34 34
84 91 90 95 93 92 96 107 109 114 103 93 89 74 60 69 58 50 58 59 66 70 74 73 70 62 55 55 51 53 41 40
88 87 89 93 94 95 97 100 103 106 103 103 100 90 82 77 72 50 36 56 64 66 74 77 81 79 75 69 61 60 64 70
88 89 92 92 93 97 97 97 101 103 103 108 109 107 91 89 95 93 66 62 64 65 60 60 63 62 67 65 57 62 71 73
82 91 94 92 92 95 98 99 100 100 102 108 115 115 113 105 93 93 96 86 83 84 71 70 67 66 67 68 69 70 68 72
73 80 89 90 91 94 98 100 103 102 99 103 112 118 122 119 114 104 93 100 99 92 97 87 84 79 72 67 72 75 75 76
71 76 81 88 94 95 94 95 96 101 103 102 108 116 118 123 121 122 114 91 103 80 79 97 97 94 80 82 83 78 79 81
69 70 75 85 90 91 92 93 96 102 106 107 103 108 112 117 125 122 118 123 118 110 99 90 88 111 103 99 98 80 83 86
67 69 73 78 84 88 90 97 98 100 102 103 106 105 107 110 113 120 120 124 124 126 124 119 109 99 100 119 111 115 112 111
61 66 73 78 77 85 89 97 101 100 100 103 101 103 105 106 109 111 117 117 117 122 125 124 122 110 99 102 102 108 108 109
56 56 62 76 79 82 86 93 97 99 103 101 99 98 100 104 108 111 112 114 114 117 117 122 125 124 123 108 109 111 117 115
56 55 54 53 61 83 87 91 89 90 95 103 102 100 99 99 103 110 114 114 113 113 115 115 119 123 128 128 134 136 129 122

GFSFLT2_250_spd_114.txt.gz
Wind_Speed
81 84 85 87 87 83 79 73 57 58 60 64 58 53 49 39 39 39 37 36 29 24 19 17 15 10 7 4 2 3 3 3
79 80 82 87 86 83 81 79 73 64 65 66 66 57 50 44 46 46 38 37 30 30 27 22 20 16 14 10 6 3 2 1
83 79 81 86 86 86 85 83 82 72 66 66 62 63 58 51 47 45 39 36 38 36 31 26 25 26 22 15 17 13 12 6
82 79 80 85 91 90 88 88 86 80 73 67 64 64 60 58 54 51 47 44 37 41 36 35 31 27 24 19 20 22 20 14
83 81 85 86 91 91 90 86 85 83 78 67 66 65 62 60 62 54 51 47 43 44 41 42 39 35 33 27 22 23 25 25
85 84 84 86 90 93 95 94 88 79 80 73 63 60 58 62 66 65 61 55 48 47 47 44 42 43 40 37 35 29 28 23
85 87 84 88 90 98 98 96 94 87 81 76 61 49 64 56 61 60 68 64 54 48 49 48 47 45 46 44 38 35 36 30
87 89 86 86 94 94 98 98 98 92 79 82 80 54 60 59 59 56 53 59 63 58 52 50 50 52 54 52 44 41 43 43
88 91 89 89 92 95 99 101 100 94 89 80 80 78 64 63 56 54 53 52 50 56 58 58 56 59 59 53 51 48 45 34
86 90 93 94 93 94 94 100 102 99 98 88 77 68 74 66 63 54 54 41 54 54 59 57 58 62 62 60 54 53 48 46
84 89 91 95 95 93 95 98 105 106 108 103 92 85 80 78 73 66 51 64 55 41 47 58 53 55 55 57 58 60 58 57
79 84 90 95 98 96 96 101 101 104 113 114 108 101 92 88 79 81 72 77 79 60 52 60 58 48 51 62 60 62 59 56
66 78 84 90 97 102 102 97 99 103 108 116 112 107 107 99 95 85 75 83 80 82 65 67 60 56 58 42 65 58 53 53
65 67 78 88 93 100 101 100 101 104 104 112 116 113 109 110 99 96 88 88 82 74 76 73 75 69 63 57 62 43 43 46
66 70 72 82 92 97 100 101 101 102 103 106 112 111 111 109 110 109 106 99 100 95 86 77 78 75 71 62 65 73 68 65
59 69 73 75 82 93 96 98 100 101 102 106 108 112 113 111 111 112 114 114 109 103 102 105 94 90 82 80 79 73 78 91
53 59 66 70 68 74 86 95 99 100 100 104 106 110 112 113 113 115 116 122 121 120 114 112 117 106 106 95 95 95 96 86
47 50 54 61 67 71 70 76 91 99 100 100 101 104 108 112 115 114 119 120 126 129 129 125 122 121 123 120 104 104 109 112
44 43 45 50 59 63 65 70 73 81 92 98 99 100 101 104 111 116 117 121 122 126 129 127 130 134 131 129 127 121 111 111

GFSFLT2_250_spd_117.txt.gz
Wind_Speed
86 82 78 84 89 88 87 82 70 70 65 60 60 52 46 43 43 36 33 28 25 22 18 15 12 8 9 9 5 6 7 8
90 88 80 79 90 92 89 81 74 73 70 66 62 55 47 48 47 44 37 32 32 28 23 20 16 15 12 9 6 4 3 5
94 87 83 81 85 92 91 80 77 76 75 73 65 58 52 51 51 47 43 41 35 34 27 25 21 19 16 15 9 12 9 7
96 91 88 87 84 90 93 82 76 69 75 72 67 62 57 55 53 51 47 41 38 36 33 32 29 25 22 20 19 14 17 18
97 94 92 88 83 85 89 85 80 73 71 69 69 66 62 60 58 57 49 45 47 47 41 40 37 32 29 26 23 21 16 20
93 95 91 87 83 84 88 90 85 85 76 70 67 68 68 66 63 63 60 50 44 46 46 43 41 37 37 33 30 29 24 19
87 91 92 87 85 85 87 88 87 88 86 78 68 68 69 69 73 67 63 57 52 51 51 48 46 41 41 43 36 33 32 28
85 89 90 86 85 85 86 89 89 90 88 86 81 70 74 71 69 73 67 64 61 56 53 53 48 47 45 43 44 39 40 38
81 88 90 87 86 86 88 90 91 92 90 83 84 80 80 76 71 70 70 68 64 62 62 58 59 51 48 47 44 43 41 43
79 86 87 87 87 88 86 91 93 94 93 86 88 74 73 75 75 64 63 68 66 65 64 64 61 53 48 49 52 45 42 48
74 84 85 90 89 89 92 94 97 98 97 91 88 91 74 68 74 66 64 62 62 64 63 60 57 57 57 51 52 52 52 52
66 78 86 91 94 95 95 96 98 99 100 100 91 88 88 75 72 68 68 69 69 63 58 57 56 55 55 57 60 61 58 53
59 70 80 90 96 98 97 97 99 100 104 104 104 95 90 85 73 75 74 72 74 76 64 68 65 63 62 47 45 45 54 47
60 63 76 87 92 97 97 99 100 102 103 104 107 108 105 94 90 85 77 70 72 73 74 68 62 70 75 74 71 51 44 54
55 64 66 78 89 92 98 100 101 100 101 103 106 109 107 106 97 86 93 83 77 74 72 69 71 69 74 75 68 63 64 67
48 57 66 69 77 90 95 97 100 102 102 104 106 109 111 109 110 102 90 95 95 94 81 77 78 74 75 78 75 69 59 63
44 51 57 64 68 73 86 94 97 99 100 101 102 108 112 113 112 115 110 96 95 96 95 91 85 86 84 82 83 81 72 73
42 45 51 54 58 67 70 80 90 92 97 99 102 103 107 113 117 118 119 120 113 97 94 97 99 103 100 97 89 95 95 93
38 41 44 49 53 57 61 66 70 82 88 92 98 103 104 107 112 118 122 124 117 119 114 106 102 106 109 94 96 92 96 103

GFSFLT2_250_spd_123.txt.gz
Wind_Speed
86 85 86 89 88 86 83 77 73 73 68 59 54 54 46 45 42 38 34 31 29 27 24 22 18 16 16 16 16 12 11 11
88 86 85 90 91 90 88 83 80 72 71 68 61 59 54 51 47 43 38 35 31 30 27 26 23 18 16 16 13 10 13 13
90 90 91 88 92 95 94 92 90 81 71 68 65 62 60 55 50 47 43 39 35 33 30 25 24 21 20 18 16 11 8 7
88 93 91 91 91 94 98 97 92 87 81 75 68 68 64 62 58 51 50 45 41 38 33 31 29 26 23 20 17 15 12 7
76 93 94 92 91 91 100 99 95 89 86 79 77 75 67 68 64 60 54 47 48 44 39 37 36 32 29 26 23 21 17 12
58 84 98 98 95 92 95 97 98 93 92 85 82 82 75 73 70 65 60 60 54 52 47 44 42 38 34 32 28 25 22 20
39 69 90 101 97 94 92 95 98 96 94 89 84 83 80 79 76 71 65 63 63 57 55 50 47 44 41 38 36 32 30 27
26 51 76 92 100 98 94 92 92 97 96 93 92 85 83 82 78 75 72 67 66 61 60 57 52 53 46 45 44 42 37 35
16 37 58 84 95 102 100 97 94 96 96 97 93 92 86 86 86 83 81 73 72 65 64 63 60 57 52 51 49 47 44 40
27 27 47 64 93 101 103 101 98 99 99 98 95 94 93 92 92 87 83 81 77 74 69 67 65 62 59 58 54 54 52 46
36 26 42 56 73 97 104 105 103 99 97 98 100 96 97 95 93 89 85 86 81 80 79 73 68 67 65 64 62 57 55 53
37 32 41 54 65 81 101 101 105 103 98 97 99 98 99 100 97 94 91 90 83 80 78 77 74 71 69 69 66 65 60 58
36 37 40 54 64 76 87 103 108 106 103 101 98 97 97 100 98 94 97 95 90 85 83 80 78 74 74 73 73 72 70 66
36 40 46 53 63 73 84 100 106 109 108 105 103 100 98 94 98 95 94 99 96 91 89 86 85 83 80 78 79 78 77 74
38 40 50 54 61 70 79 87 101 108 109 106 106 105 101 97 92 95 94 94 96 96 94 91 91 87 87 82 81 82 81 79
39 38 50 54 59 67 75 82 91 101 107 109 108 106 104 100 95 91 95 98 91 93 92 90 92 91 89 92 93 89 87 81
36 34 48 56 58 65 70 77 81 95 107 109 107 106 104 103 99 94 90 97 99 100 89 94 95 91 91 91 92 94 93 92
30 34 43 53 57 62 68 70 77 85 96 104 106 106 105 103 100 96 94 91 96 101 101 90 85 83 82 87 89 92 94 94
26 32 38 49 55 58 63 68 71 75 82 92 100 106 106 103 100 99 96 96 94 95 102 101 100 102 92 88 94 89 93 96